SNAP-3 JIMI

Last updated on Sun Jun 21 2026 00:03:50 GMT+0000 (Coordinated Universal Time)

1 40975U 15058M 26171.45105124 .00003616 00000+0 25405-3 0 9997 2 40975 64.7633 209.4453 0106344 54.0536 307.0390 15.02320729114711
UTC large
Height (km)
Speed (km/s)
/
Latitude / Longitude
Inclination (degrees)
Orbital Period (minutes)
Azimuth
Elevation
Range (km)
Doppler Factor

Next 0 passes for location: London (51.5072 / 0.1276)

No passes found over London.
SNAP-3 JIMI